Theta_e
332 339 347 348 345 344 343 339 340 337 337 337 338 336 337 336 336 336 336 339 338 338 338 337 337 338 338 339 340 340 341 341 341 341 341 340 338 337 335 334 332 327 332
334 340 345 348 347 345 343 339 337 337 339 337 337 337 337 337 336 336 336 337 337 338 339 338 338 338 336 338 339 340 340 340 339 339 338 337 336 334 334 332 333 328 331
335 341 345 346 346 345 343 342 340 337 338 337 337 336 338 338 338 336 338 340 336 339 339 339 338 337 338 336 338 339 340 339 338 337 335 329 327 332 332 330 329 329 329
336 341 344 344 346 344 343 342 341 339 337 338 337 337 341 338 337 336 338 339 338 340 339 339 337 337 337 338 338 339 339 338 338 334 329 326 326 331 330 329 328 327 327
338 341 342 343 345 344 342 342 341 337 338 339 336 335 337 339 338 338 337 339 338 339 339 337 337 337 337 337 338 338 338 338 336 330 326 325 324 328 329 327 325 325 324
336 340 341 344 344 343 342 342 340 337 338 340 339 337 336 339 339 338 338 339 339 338 338 337 336 336 336 336 337 338 338 337 334 328 327 329 324 330 328 326 325 324 323
330 338 342 342 343 342 343 342 341 341 342 339 337 334 335 337 336 337 337 338 338 337 336 336 335 335 335 335 335 336 337 335 330 328 326 327 325 329 327 326 325 323 323
332 337 341 337 338 340 341 341 340 341 340 338 337 336 334 336 337 337 336 337 337 336 335 335 334 333 333 333 333 334 334 331 329 328 327 326 329 327 326 325 324 322 322
332 334 339 339 336 335 337 337 338 339 339 338 337 338 337 337 338 338 337 337 337 335 334 333 333 332 332 331 331 332 330 329 328 327 327 326 329 327 326 324 323 322 322
331 333 338 337 336 335 334 332 334 335 336 336 335 333 332 333 334 333 332 335 335 332 333 332 330 329 328 327 327 327 327 328 327 326 325 326 329 326 324 323 322 321 320
335 336 338 336 335 332 333 330 330 331 331 330 329 327 327 329 329 329 329 332 333 332 330 330 328 325 324 323 325 326 326 326 326 325 325 328 327 325 323 322 321 321 319
333 336 337 336 333 329 331 333 334 331 330 328 328 326 327 325 327 329 325 327 330 329 329 328 326 324 321 317 316 321 323 321 320 322 323 327 325 324 323 321 320 320 318
334 335 336 334 330 327 330 332 333 329 329 329 326 325 326 327 329 327 325 326 325 322 322 321 320 321 319 317 316 316 317 318 316 315 318 326 324 323 322 320 320 320 317
333 334 335 334 329 328 330 333 330 330 331 328 326 325 324 324 326 326 324 324 321 321 320 318 321 320 318 316 315 314 314 316 312 314 314 319 324 322 321 321 319 319 317
329 332 334 333 329 329 331 333 330 330 330 328 325 325 324 323 324 325 323 324 321 323 321 318 317 315 314 314 314 312 312 312 311 311 309 315 321 321 320 319 318 319 318
330 329 329 329 327 326 326 328 330 330 331 325 324 323 324 324 323 325 323 322 321 322 320 318 315 313 312 312 311 311 310 310 311 310 309 309 316 319 318 317 317 319 317
329 330 328 328 327 325 324 324 326 328 327 324 323 323 323 325 323 322 324 324 321 321 320 319 314 312 310 310 308 307 307 307 306 306 306 307 308 314 316 316 315 316 318
328 328 328 329 327 325 323 323 323 325 324 323 321 322 323 325 325 324 323 324 323 322 320 317 312 310 307 306 303 302 302 302 301 301 301 302 305 306 309 312 313 312 313
326 328 327 328 326 326 324 323 323 323 323 323 321 321 323 324 326 325 324 324 323 321 319 317 313 310 306 304 302 300 299 298 298 299 297 298 298 301 301 307 308 309 310
325 327 327 327 327 326 324 323 322 322 322 322 319 321 323 324 325 326 325 324 322 320 319 315 314 310 307 303 303 300 299 298 296 295 295 296 296 296 298 300 299 301 308
325 325 325 326 326 326 324 321 320 319 321 320 319 320 323 324 324 325 325 324 322 320 318 315 313 308 304 302 298 296 296 297 296 295 294 293 293 294 293 294 294 297 299
324 325 325 325 326 326 325 325 322 321 322 323 321 321 322 323 324 325 324 323 322 319 318 315 311 307 304 302 298 296 292 294 295 296 294 294 292 293 292 293 292 293 295
323 324 324 325 325 326 326 325 324 322 320 321 321 320 321 322 323 323 324 323 322 320 318 316 311 307 302 301 302 299 295 293 293 294 294 293 292 291 291 292 292 292 292
322 324 325 324 324 325 326 324 322 320 318 321 322 323 321 320 322 324 324 323 322 321 319 317 312 308 304 301 300 303 302 299 293 290 293 293 293 292 291 291 290 291 291
323 323 324 324 324 324 324 324 322 321 323 321 322 322 322 321 321 324 324 323 322 322 320 317 314 309 306 303 301 300 300 299 300 296 291 291 292 292 292 291 291 290 290
323 324 324 323 324 324 323 323 322 321 322 321 320 321 322 321 322 322 324 323 322 322 321 318 316 310 308 306 303 301 300 298 299 297 295 293 292 292 292 292 292 290 288
Wind_Speed
14 14 16 19 19 18 18 16 15 16 16 16 16 16 16 17 16 15 15 14 15 15 15 16 15 16 16 16 16 17 18 19 22 23 24 25 25 23 23 22 20 16 22
18 15 15 19 19 19 18 17 16 16 15 16 16 15 15 16 15 15 14 14 13 15 16 16 16 16 16 15 15 15 18 20 21 22 22 23 22 22 23 21 20 19 22
18 15 15 18 20 19 18 16 15 16 15 15 16 14 15 16 15 14 12 13 14 14 17 18 17 17 16 15 13 14 17 18 19 20 18 11 13 22 22 22 22 21 21
17 15 15 18 19 20 19 17 15 15 15 15 14 12 15 15 14 13 13 12 15 17 17 18 17 17 16 14 13 13 17 19 16 18 11 11 13 22 22 22 21 20 21
16 15 14 19 21 20 18 17 17 16 15 14 14 12 12 13 15 13 13 12 14 16 18 18 17 16 14 13 13 13 17 15 15 15 11 11 9 18 21 21 18 20 20
16 16 15 21 21 21 18 17 17 17 15 16 13 12 13 14 15 13 12 12 16 16 18 17 16 15 14 13 14 13 18 17 12 12 11 14 11 19 20 19 19 20 19
13 16 14 20 20 20 19 17 17 15 16 15 13 13 13 12 14 12 13 14 16 17 17 17 16 15 14 13 14 13 16 14 11 9 9 10 11 20 18 18 19 20 19
15 16 14 14 17 18 18 18 16 15 15 15 13 13 12 12 13 13 13 15 16 18 17 16 16 14 14 13 14 12 10 14 11 11 9 8 16 18 18 18 18 19 19
15 14 13 12 13 13 13 13 14 15 14 14 11 13 10 9 13 12 11 16 17 18 16 15 16 14 14 13 14 18 14 13 9 8 8 6 17 17 17 16 18 18 19
13 14 13 13 11 10 8 10 12 13 13 12 12 12 12 11 11 11 10 14 18 16 16 15 15 14 12 12 12 9 12 12 9 9 5 7 17 16 17 16 17 17 18
9 13 12 14 12 10 8 7 10 13 13 12 11 11 10 5 6 7 11 13 15 15 15 14 13 12 10 9 9 11 9 6 7 6 4 14 16 15 15 15 15 16 16
13 13 13 14 13 11 10 8 8 9 8 7 7 7 5 6 6 9 10 12 13 12 13 12 11 9 6 3 3 7 6 8 6 4 3 12 14 15 14 14 14 14 15
12 10 14 13 13 11 11 7 5 5 6 6 8 7 5 8 8 7 5 5 6 8 4 5 4 2 6 4 4 4 6 8 5 4 6 9 13 13 13 13 13 13 13
10 12 13 14 12 12 9 7 8 7 5 6 7 7 6 4 7 8 5 6 5 4 6 5 3 5 6 6 6 5 6 6 4 4 7 13 9 12 11 12 11 10 11
7 10 14 12 11 9 12 8 8 8 7 6 8 6 5 5 6 8 7 6 4 4 5 5 5 4 5 5 5 6 6 7 7 4 3 14 13 10 9 10 10 10 11
13 9 5 11 8 6 7 9 9 8 8 5 6 5 7 6 5 8 8 7 4 5 5 5 5 5 4 5 5 6 6 6 6 6 4 5 16 14 8 7 9 10 10
15 13 10 5 10 8 7 7 7 8 6 5 5 7 7 6 6 7 7 7 5 4 6 5 5 5 5 5 6 5 5 6 5 5 4 4 5 14 12 7 6 8 9
15 17 15 7 6 9 7 6 4 5 5 5 5 5 7 6 8 7 6 6 6 5 5 5 5 5 5 5 4 4 4 4 5 4 4 3 4 4 8 10 7 5 6
12 16 16 13 6 6 8 6 5 6 5 5 5 5 7 7 8 6 6 7 8 5 5 6 4 5 4 4 5 4 4 4 4 3 3 4 4 4 4 5 9 9 4
9 15 15 14 13 7 4 5 4 4 5 5 5 5 8 6 6 8 6 9 8 7 6 4 6 5 5 5 6 4 3 3 3 3 4 3 3 3 5 4 2 3 4
10 14 16 16 15 12 6 5 7 6 5 4 5 8 9 8 7 8 7 9 8 8 8 6 5 7 4 5 5 2 1 3 3 4 5 4 4 4 4 3 2 3 1
16 14 16 17 17 14 11 8 5 6 5 7 6 8 9 10 8 9 9 9 10 7 9 8 7 4 3 7 4 3 3 2 4 5 4 4 6 4 4 4 4 4 4
16 16 16 17 16 15 14 9 6 7 4 7 8 7 9 10 9 10 9 8 10 9 9 10 8 8 5 6 6 5 3 5 3 3 5 5 6 4 5 5 5 5 4
17 16 17 18 17 15 17 13 16 10 11 9 8 8 9 8 9 11 10 11 12 9 11 10 8 9 6 9 2 8 2 3 4 2 2 5 5 7 7 5 6 6 5
16 16 17 17 17 17 16 17 13 15 10 7 7 10 10 10 8 11 13 12 12 10 10 12 12 12 9 8 7 3 2 2 3 3 3 4 3 5 6 6 6 5 6
15 15 15 17 18 19 19 18 19 18 15 10 10 10 10 9 10 12 14 13 12 14 13 12 13 15 12 10 9 5 5 5 5 4 3 3 4 4 5 6 7 6 5
Wind_Direction
138 143 148 140 135 133 126 127 129 124 120 116 112 111 109 107 105 103 103 101 95 96 95 85 82 80 79 79 81 82 77 81 82 83 82 78 77 78 79 75 73 69 68
125 144 145 144 138 135 131 132 131 127 125 122 119 118 113 108 107 104 108 100 96 94 95 91 85 82 85 82 82 88 87 92 92 85 78 76 80 76 78 76 71 71 70
131 140 143 144 140 133 134 135 132 133 129 126 117 123 113 114 114 117 110 105 100 97 97 90 85 83 83 88 88 92 92 102 96 89 86 84 77 80 77 76 73 70 70
135 143 142 144 139 134 135 137 137 135 131 124 129 118 122 120 115 111 104 96 96 102 97 90 87 84 83 86 93 95 99 110 102 90 84 81 84 80 76 72 70 71 70
137 149 137 142 140 138 141 145 140 138 135 136 124 127 107 109 116 111 99 100 99 106 98 93 87 82 79 79 74 72 109 111 98 95 93 85 80 80 78 75 73 71 70
145 134 137 144 144 143 145 146 149 142 141 131 123 120 110 110 112 105 102 93 99 104 98 94 89 85 81 77 62 80 108 107 96 93 90 96 89 79 78 80 79 74 69
147 128 138 146 146 146 147 149 144 146 136 131 134 131 113 111 112 111 108 102 107 106 101 95 88 85 82 72 60 58 105 94 91 84 90 91 90 85 82 81 80 75 72
125 134 140 147 147 149 149 150 150 145 136 130 132 125 128 122 120 117 112 109 112 106 101 96 90 84 81 67 57 46 75 92 96 92 91 95 92 87 85 82 80 75 71
126 134 142 151 146 145 147 151 147 144 140 137 141 132 123 125 116 108 111 117 114 108 104 97 92 86 79 69 56 66 70 74 94 100 97 93 92 86 87 84 82 79 74
131 138 146 150 149 150 152 143 149 136 132 129 115 114 110 104 103 106 111 121 116 117 109 101 96 90 76 56 45 47 68 67 86 90 82 98 95 86 87 87 84 80 75
140 145 152 151 156 157 155 143 138 131 127 119 120 129 137 129 132 139 115 112 114 120 118 111 107 99 80 52 43 67 70 69 73 81 91 94 95 92 90 93 85 82 76
157 161 156 159 159 159 161 150 139 139 144 142 139 165 174 153 122 100 98 99 102 108 121 120 127 139 115 86 29 61 87 78 68 64 82 100 96 97 95 93 94 85 78
158 166 160 164 163 163 151 159 144 158 161 155 153 188 148 119 120 110 116 107 114 111 119 135 157 200 74 75 59 65 91 90 71 54 17 99 99 101 99 99 88 90 82
176 172 169 175 165 172 148 157 159 165 173 163 167 200 131 132 128 134 132 142 149 168 162 166 126 73 74 70 77 71 70 104 96 59 31 36 100 99 106 103 102 101 86
202 177 178 189 168 161 159 152 167 169 181 166 167 194 138 144 144 146 146 154 185 165 152 119 109 109 96 89 73 73 66 73 84 76 45 41 36 107 106 100 98 94 84
179 203 214 177 164 174 157 170 169 168 188 163 157 178 160 156 159 149 154 153 186 167 155 123 128 127 114 98 81 76 74 68 90 100 76 45 47 38 97 102 91 103 92
176 178 210 218 168 173 176 182 158 172 176 155 154 171 174 162 164 147 162 158 162 156 143 129 125 116 106 98 97 87 87 86 79 95 114 102 61 46 45 81 85 94 105
174 170 186 207 194 174 172 173 172 163 154 155 155 162 183 180 174 168 147 152 141 143 153 133 135 125 127 125 127 118 102 93 94 83 75 90 112 96 59 53 47 76 89
175 173 175 190 194 192 167 164 169 171 159 156 155 163 184 199 183 159 143 145 142 145 161 162 154 138 143 135 130 124 130 128 139 126 119 87 81 104 110 73 66 37 67
177 175 177 177 181 199 174 159 181 174 164 153 172 178 185 196 187 145 152 151 151 157 173 160 162 141 141 142 128 116 135 153 146 147 158 138 136 113 136 152 123 56 66
183 182 180 179 180 179 194 185 183 185 174 178 179 185 182 195 189 149 167 158 160 171 176 175 158 147 135 128 101 82 105 173 193 189 171 169 160 176 159 157 147 140 91
189 190 186 187 184 182 190 198 178 188 190 193 184 191 186 190 189 181 173 170 170 171 180 173 156 137 119 157 147 141 178 279 245 207 188 178 177 178 177 182 188 179 171
187 199 191 194 186 182 187 191 205 187 191 198 194 189 194 186 181 185 177 170 175 182 188 180 167 166 152 186 187 154 151 217 148 193 208 190 173 176 191 191 186 189 180
192 195 201 188 190 188 184 186 196 208 206 204 198 190 189 192 181 181 183 185 186 191 189 185 173 179 154 181 204 245 209 147 170 185 240 207 186 186 189 192 184 185 187
190 194 200 193 185 186 196 184 192 203 220 194 198 197 194 195 188 184 191 187 189 196 192 187 179 185 187 174 191 146 168 231 227 153 180 218 222 202 197 182 182 181 181
189 191 196 203 193 187 185 191 195 205 209 206 199 200 198 193 201 201 195 193 191 196 200 193 190 190 194 196 195 186 173 171 198 184 174 159 181 216 186 189 190 179 178